GREAT CHANNEL AT STONE HARBOR HADS current weather conditions

sailwx.info

Wind from 310 at 10 knots gusting 19

Air temperature 6.5° C
Dewpoint -4.1° C

Last reported at 2019-Dec-05 20:42 UTC.
Time now 2019-Dec-05 21:54 UTC

Location: N 39°03' W 074°46'.
View on Google Maps.

See reports from other nearby stations

  
Tides and Currents Weather Stations Pressure Air Temp Water Temp Dewpoint Dewpoint Depression Visibility Wind Speed Wind Dir Waves Ship Positions
date/time (UTC)wind fromknots sea level pressurealtimeterstation pressurevisibilityair tempwater tempwave heightnotes
2019-Dec-05 20:42 310 10 gusting 19 6.5
2019-Dec-05 20:36 310 11 gusting 21 6.4
2019-Dec-05 20:30 308 13 gusting 19 6.5
2019-Dec-05 20:24 307 13 gusting 22 6.5
2019-Dec-05 20:18 307 13 gusting 18 6.5
2019-Dec-05 20:12 307 13 gusting 22 6.6
2019-Dec-05 20:06 312 10 gusting 19 6.8
2019-Dec-05 20:00 310 13 gusting 21 6.7
2019-Dec-05 19:54 310 13 gusting 21 6.6
2019-Dec-05 19:48 311 14 gusting 21 6.6
2019-Dec-05 19:42 310 14 gusting 24 6.6
2019-Dec-05 19:36 310 15 gusting 23 6.6
2019-Dec-05 19:30 309 16 gusting 23 6.6
2019-Dec-05 19:24 313 13 gusting 26 6.7
2019-Dec-05 19:18 311 15 gusting 23 6.5
2019-Dec-05 19:12 310 15 gusting 24 6.6
2019-Dec-05 19:06 311 16 gusting 28 6.6
2019-Dec-05 19:00 309 15 gusting 25 6.8
2019-Dec-05 18:54 304 15 gusting 23 6.8
2019-Dec-05 18:48 304 14 gusting 24 6.8
2019-Dec-05 18:42 308 15 gusting 27 6.7
2019-Dec-05 18:36 306 15 gusting 25 6.6
2019-Dec-05 18:30 309 16 gusting 23 6.5
2019-Dec-05 18:24 312 18 gusting 31 6.3
2019-Dec-05 18:18 310 17 gusting 24 6.4
2019-Dec-05 18:12 313 15 gusting 27 6.2
2019-Dec-05 18:06 309 15 gusting 22 6.1
2019-Dec-05 18:00 309 16 gusting 24 6.1
2019-Dec-05 17:54 311 16 gusting 24 6.2
2019-Dec-05 17:48 312 15 gusting 26 5.8
2019-Dec-05 17:42 309 16 gusting 26 5.7
2019-Dec-05 17:36 308 14 gusting 25 5.7
2019-Dec-05 17:30 308 15 gusting 22 5.7
2019-Dec-05 17:24 311 14 gusting 19 5.6
2019-Dec-05 17:18 310 15 gusting 23 5.6
2019-Dec-05 17:12 307 14 gusting 25 5.6
2019-Dec-05 17:06 307 15 gusting 24 5.6
2019-Dec-05 17:00 307 14 gusting 22 5.6
2019-Dec-05 16:54 309 12 gusting 20 5.6
2019-Dec-05 16:48 310 12 gusting 20 5.7
2019-Dec-05 16:42 307 12 gusting 22 5.7
2019-Dec-05 16:36 305 9 gusting 18 5.8
2019-Dec-05 16:30 305 10 gusting 18 5.8
2019-Dec-05 16:24 307 10 gusting 18 5.6
2019-Dec-05 16:18 309 12 gusting 21 5.5
2019-Dec-05 16:12 309 13 gusting 23 5.5
2019-Dec-05 16:06 308 13 gusting 20 5.6
2019-Dec-05 16:00 301 11 gusting 18 5.7
2019-Dec-05 15:54 306 11 gusting 16 5.7
2019-Dec-05 15:48 306 11 gusting 17 5.8
2019-Dec-05 15:42 306 11 gusting 19 5.9
2019-Dec-05 15:36 311 12 gusting 19 6.0
2019-Dec-05 15:30 304 12 gusting 21 6.3
2019-Dec-05 15:24 311 10 gusting 18 6.1
2019-Dec-05 15:18 306 12 gusting 21 5.9
2019-Dec-05 15:12 304 10 gusting 18 5.8
2019-Dec-05 15:06 315 11 gusting 19 5.7
2019-Dec-05 15:00 313 13 gusting 21 5.7
2019-Dec-05 14:54 310 14 gusting 19 5.8
2019-Dec-05 14:48 308 13 gusting 20 5.9
2019-Dec-05 14:42 307 15 gusting 23 5.9
2019-Dec-05 14:36 306 13 gusting 21 6.0
2019-Dec-05 14:30 304 15 gusting 22 6.1
2019-Dec-05 14:24 309 14 gusting 22 6.2
2019-Dec-05 14:18 309 13 gusting 23 6.0
2019-Dec-05 14:12 307 14 gusting 20 5.9
2019-Dec-05 14:06 307 14 gusting 22 5.6
2019-Dec-05 14:00 310 12 gusting 19 5.5
2019-Dec-05 13:54 308 13 gusting 19 5.5
2019-Dec-05 13:48 304 12 gusting 19 5.4
2019-Dec-05 13:42 304 11 gusting 19 5.3
2019-Dec-05 13:36 307 13 gusting 20 5.3
2019-Dec-05 13:30 309 14 gusting 21 5.3
2019-Dec-05 13:24 309 13 gusting 20 5.3
2019-Dec-05 13:18 310 14 gusting 21 5.5
2019-Dec-05 13:12 309 14 gusting 21 5.6
2019-Dec-05 13:06 309 14 gusting 22 5.5
2019-Dec-05 13:00 310 13 gusting 20 5.3
2019-Dec-05 12:54 309 13 gusting 21 5.2
2019-Dec-05 12:48 312 13 gusting 21 5.2
2019-Dec-05 12:42 312 13 gusting 22 5.3
2019-Dec-05 12:36 308 13 gusting 20 5.3
2019-Dec-05 12:30 310 12 gusting 18 5.3
2019-Dec-05 12:24 310 11 gusting 18 5.3
2019-Dec-05 12:18 308 13 gusting 19 5.3
2019-Dec-05 12:12 307 12 gusting 21 5.2
2019-Dec-05 12:06 303 10 gusting 20 5.2
2019-Dec-05 12:00 300 10 gusting 19 5.1
2019-Dec-05 11:54 301 10 gusting 17 5.1
2019-Dec-05 11:48 302 10 gusting 18 5.1
2019-Dec-05 11:42 306 10 gusting 18 5.2
2019-Dec-05 11:36 305 11 gusting 16 5.2
2019-Dec-05 11:30 301 10 gusting 20 5.2
2019-Dec-05 11:24 304 9 gusting 17 5.1
2019-Dec-05 11:18 301 11 gusting 18 5.1
2019-Dec-05 11:12 301 10 gusting 18 5.1
2019-Dec-05 11:06 304 10 gusting 20 5.1
2019-Dec-05 11:00 303 9 gusting 15 5.2
2019-Dec-05 10:54 299 10 gusting 16 5.2
2019-Dec-05 10:48 305 10 gusting 15 5.3
2019-Dec-05 10:42 306 10 gusting 17 5.3
2019-Dec-05 10:36 299 9 gusting 15 5.3
2019-Dec-05 10:30 301 9 gusting 18 5.2
2019-Dec-05 10:24 304 10 gusting 18 5.2
2019-Dec-05 10:18 307 9 gusting 15 5.2
2019-Dec-05 10:12 307 10 gusting 16 5.2
2019-Dec-05 10:06 306 10 gusting 18 5.2
2019-Dec-05 10:00 306 10 gusting 17 5.2
2019-Dec-05 09:54 308 10 gusting 17 5.3
2019-Dec-05 09:48 304 8 gusting 16 5.2
2019-Dec-05 09:42 302 10 gusting 18 5.3
2019-Dec-05 09:36 301 9 gusting 17 5.2
2019-Dec-05 09:30 303 9 gusting 15 5.2
2019-Dec-05 09:24 300 10 gusting 15 5.2
2019-Dec-05 09:18 301 9 gusting 17 5.1
2019-Dec-05 09:12 306 9 gusting 14 5.1
2019-Dec-05 09:06 303 9 gusting 16 5.1
2019-Dec-05 09:00 303 9 gusting 14 5.1
2019-Dec-05 08:54 304 9 gusting 15 5.1
2019-Dec-05 08:48 306 8 gusting 15 5.1
2019-Dec-05 08:42 303 10 gusting 17 5.1
2019-Dec-05 08:36 308 11 gusting 17 5.1
2019-Dec-05 08:30 307 10 gusting 17 5.1
2019-Dec-05 08:24 309 11 gusting 20 5.2
2019-Dec-05 08:18 309 10 gusting 16 5.2
2019-Dec-05 08:12 308 9 gusting 15 5.2
2019-Dec-05 08:06 310 10 gusting 15 5.2
2019-Dec-05 08:00 309 9 gusting 14 5.2
2019-Dec-05 07:54 308 10 gusting 16 5.3
2019-Dec-05 07:48 309 9 gusting 14 5.2
2019-Dec-05 07:42 309 9 gusting 14 5.2
2019-Dec-05 07:36 308 9 gusting 13 5.2
2019-Dec-05 07:30 307 9 gusting 14 5.2
2019-Dec-05 07:24 310 10 gusting 15 5.2
2019-Dec-05 07:18 306 7 gusting 12 5.0
2019-Dec-05 07:12 308 8 gusting 12 4.9
2019-Dec-05 07:06 308 8 gusting 12 4.9
2019-Dec-05 07:00 308 7 gusting 10 4.9
2019-Dec-05 06:54 307 7 gusting 11 5.0
2019-Dec-05 06:48 308 7 gusting 11 5.0
2019-Dec-05 06:42 308 7 gusting 11 4.9
2019-Dec-05 06:36 308 8 gusting 11 4.9
2019-Dec-05 06:30 309 8 gusting 12 4.9
2019-Dec-05 06:24 307 7 gusting 12 4.7
2019-Dec-05 06:18 307 7 gusting 11 4.7
2019-Dec-05 06:12 308 7 gusting 9 4.6
2019-Dec-05 06:06 310 7 gusting 12 4.5
2019-Dec-05 06:00 307 6 gusting 10 4.1
2019-Dec-05 05:54 292 5 gusting 8 3.7
2019-Dec-05 05:48 270 6 gusting 9 3.5
2019-Dec-05 05:42 254 8 gusting 9 3.5
2019-Dec-05 05:36 252 7 gusting 9 3.4
2019-Dec-05 05:30 263 5 gusting 9 3.3
2019-Dec-05 05:24 268 4 gusting 6 3.4
2019-Dec-05 05:18 263 6 gusting 8 3.4
2019-Dec-05 05:12 254 8 gusting 10 3.5
2019-Dec-05 05:06 244 8 gusting 9 3.6
2019-Dec-05 05:00 242 7 gusting 9 3.4
2019-Dec-05 04:54 242 5 gusting 7 3.5
2019-Dec-05 04:48 244 5 gusting 6 3.5
2019-Dec-05 04:42 249 5 gusting 5 3.5
2019-Dec-05 04:36 248 5 gusting 6 3.4
2019-Dec-05 04:30 251 4 gusting 5 3.4
2019-Dec-05 04:24 259 4 gusting 5 3.4
2019-Dec-05 04:18 262 5 gusting 5 3.4
2019-Dec-05 04:12 266 4 gusting 5 3.4
2019-Dec-05 04:06 281 2 gusting 4 3.3
2019-Dec-05 04:00 279 3 gusting 4 3.3
2019-Dec-05 03:54 273 4 gusting 6 3.4
2019-Dec-05 03:48 272 4 gusting 6 3.5
2019-Dec-05 03:42 274 3 gusting 5 3.6
2019-Dec-05 03:36 295 2 gusting 4 3.8
2019-Dec-05 03:30 319 2 gusting 5 3.9
2019-Dec-05 03:24 337 4 gusting 6 4.0
2019-Dec-05 03:18 333 4 gusting 6 4.1
2019-Dec-05 03:12 327 4 gusting 6 4.2
2019-Dec-05 03:06 333 4 gusting 6 4.3
2019-Dec-05 03:00 329 4 gusting 7 4.4
2019-Dec-05 02:54 329 4 gusting 7 4.5
2019-Dec-05 02:48 338 4 gusting 8 4.6
2019-Dec-05 02:42 339 5 gusting 9 4.7
2019-Dec-05 02:36 329 6 gusting 11 4.8
2019-Dec-05 02:30 309 5 gusting 10 4.8
2019-Dec-05 02:24 291 5 gusting 9 4.7
2019-Dec-05 02:18 280 4 gusting 7 4.6
2019-Dec-05 02:12 272 5 gusting 7 4.5
2019-Dec-05 02:06 282 3 gusting 6 4.5
2019-Dec-05 02:00 293 2 gusting 4 4.4
2019-Dec-05 01:54 312 2 gusting 4 4.4
2019-Dec-05 01:48 301 1 gusting 3 4.4
2019-Dec-05 01:42 301 1 gusting 2 4.4
2019-Dec-05 01:36 312 1 gusting 3 4.4
2019-Dec-05 01:30 305 1 gusting 3 4.4
2019-Dec-05 01:24 305 1 gusting 3 4.4
2019-Dec-05 01:18 328 2 gusting 4 4.5
2019-Dec-05 01:12 322 4 gusting 8 4.6
2019-Dec-05 01:06 328 4 gusting 7 4.6
2019-Dec-05 01:00 317 3 gusting 7 4.7
2019-Dec-05 00:54 299 4 gusting 8 4.9
2019-Dec-05 00:48 287 1 gusting 4 4.9
2019-Dec-05 00:42 326 2 gusting 4 4.8
2019-Dec-05 00:36 007 2 gusting 3 4.8
2019-Dec-05 00:30 010 3 gusting 3 4.8
2019-Dec-05 00:24 021 2 gusting 3 4.9
2019-Dec-05 00:18 023 2 gusting 2 4.9
2019-Dec-05 00:12 027 1 gusting 2 5.0
2019-Dec-05 00:06 002 1 gusting 2 5.0
2019-Dec-05 00:00 356 1 gusting 2 5.0
2019-Dec-04 23:54 002 2 gusting 3 5.1
2019-Dec-04 23:42 344 1 gusting 3 5.2
2019-Dec-04 23:36 341 2 gusting 2 5.3
2019-Dec-04 23:30 341 2 gusting 3 5.4
2019-Dec-04 23:24 345 2 gusting 4 5.4
2019-Dec-04 23:18 341 2 gusting 4 5.5
2019-Dec-04 23:12 330 1 gusting 4 5.6
2019-Dec-04 23:06 342 3 gusting 5 5.6
2019-Dec-04 23:00 343 1 gusting 3 5.7
2019-Dec-04 22:54 337 2 gusting 4 5.8
2019-Dec-04 22:48 339 2 gusting 5 5.9
2019-Dec-04 22:42 336 2 gusting 4 6.0
2019-Dec-04 22:36 323 3 gusting 6 6.1
2019-Dec-04 22:30 331 3 gusting 6 6.2
2019-Dec-04 22:24 323 2 gusting 4 6.2
2019-Dec-04 22:18 317 2 gusting 5 6.3
2019-Dec-04 22:12 316 2 gusting 4 6.3
2019-Dec-04 22:06 311 2 gusting 5 6.4
2019-Dec-04 22:00 292 3 gusting 5 6.4
2019-Dec-04 21:54 285 4 gusting 7 6.5
2019-Dec-04 21:48 272 6 gusting 9 6.5
2019-Dec-04 21:42 271 5 gusting 8 6.4
2019-Dec-04 21:36 274 4 gusting 6 6.5
2019-Dec-04 21:30 272 4 gusting 6 6.5
2019-Dec-04 21:24 272 4 gusting 6 6.5
2019-Dec-04 21:18 272 5 gusting 6 6.5
2019-Dec-04 21:12 277 4 gusting 6 6.6
2019-Dec-04 21:06 287 3 gusting 5 6.6
2019-Dec-04 21:00 289 4 gusting 6 6.6
2019-Dec-04 20:54 293 4 gusting 6 6.6
2019-Dec-04 20:48 293 5 gusting 7 6.6
2019-Dec-04 20:42 294 5 gusting 8 6.6
2019-Dec-04 20:36 291 4 gusting 7 6.6
2019-Dec-04 20:30 291 5 gusting 10 6.7
2019-Dec-04 20:24 287 6 gusting 9 6.8
2019-Dec-04 20:18 289 6 gusting 10 7.0
2019-Dec-04 20:12 285 7 gusting 12 7.1
2019-Dec-04 20:06 288 6 gusting 10 7.1
2019-Dec-04 20:00 288 7 gusting 11 7.1
2019-Dec-04 19:54 284 5 gusting 9 7.1
2019-Dec-04 19:48 285 6 gusting 10 7.1
2019-Dec-04 19:42 290 5 gusting 9 7.2
2019-Dec-04 19:36 292 7 gusting 12 6.9
2019-Dec-04 19:30 303 6 gusting 9 7.1
2019-Dec-04 19:24 286 6 gusting 11 7.0
2019-Dec-04 19:18 291 7 gusting 11 6.9
2019-Dec-04 19:12 304 6 gusting 10 7.0
2019-Dec-04 19:06 288 7 gusting 11 7.0
2019-Dec-04 19:00 294 6 gusting 11 7.1
2019-Dec-04 18:54 310 6 gusting 11 6.8
2019-Dec-04 18:48 296 7 gusting 12 6.6
2019-Dec-04 18:42 288 6 gusting 11 6.4
2019-Dec-04 18:36 302 6 gusting 10 6.4
2019-Dec-04 18:12 291 8 gusting 12 6.4
2019-Dec-04 18:06 294 8 gusting 12 6.5
2019-Dec-04 18:00 287 9 gusting 15 6.4
2019-Dec-04 17:54 296 5 gusting 12 6.4
2019-Dec-04 17:48 303 6 gusting 9 6.4
2019-Dec-04 17:42 300 6 gusting 10 6.4
2019-Dec-04 17:36 297 7 gusting 10 6.1
2019-Dec-04 17:30 311 5 gusting 10 6.2
2019-Dec-04 17:24 299 8 gusting 13 6.1
2019-Dec-04 17:18 310 6 gusting 13 6.2
2019-Dec-04 17:12 299 7 gusting 13 6.1
2019-Dec-04 17:06 307 6 gusting 10 6.0
2019-Dec-04 17:00 297 7 gusting 12 5.8
2019-Dec-04 16:54 293 9 gusting 15 5.7
2019-Dec-04 16:48 298 9 gusting 14 5.8
2019-Dec-04 16:42 299 10 gusting 16 5.6
2019-Dec-04 16:36 300 10 gusting 15 5.7
2019-Dec-04 16:30 304 9 gusting 16 5.7
2019-Dec-04 16:24 295 8 gusting 14 5.5
2019-Dec-04 16:18 304 8 gusting 13 5.7
2019-Dec-04 16:12 298 9 gusting 13 5.8
2019-Dec-04 16:06 303 8 gusting 13 5.7
2019-Dec-04 16:00 296 7 gusting 12 5.5
2019-Dec-04 15:54 309 6 gusting 12 5.5
2019-Dec-04 15:48 306 7 gusting 10 5.4
2019-Dec-04 15:42 299 7 gusting 11 5.4
2019-Dec-04 15:36 290 8 gusting 12 5.3
2019-Dec-04 15:30 308 5 gusting 9 5.4
2019-Dec-04 15:24 302 6 gusting 10 5.1
2019-Dec-04 15:18 294 5 gusting 8 5.0
2019-Dec-04 15:12 302 4 gusting 6 4.9
2019-Dec-04 15:06 280 5 gusting 7 4.7
2019-Dec-04 15:00 280 5 gusting 8 4.6
2019-Dec-04 14:54 280 4 gusting 8 4.7
2019-Dec-04 14:48 286 5 gusting 8 4.6
2019-Dec-04 14:42 285 6 gusting 10 4.6
2019-Dec-04 14:36 306 6 gusting 9 4.6
2019-Dec-04 14:30 310 7 gusting 11 4.5
2019-Dec-04 14:24 300 6 gusting 10 4.6
2019-Dec-04 14:18 297 6 gusting 10 4.5
2019-Dec-04 14:12 294 6 gusting 8 4.4
2019-Dec-04 14:06 302 4 gusting 7 4.4
2019-Dec-04 14:00 300 4 gusting 6 4.4
2019-Dec-04 13:54 294 5 gusting 8 4.3
2019-Dec-04 13:48 297 4 gusting 8 4.3
2019-Dec-04 13:42 287 4 gusting 7 4.3
2019-Dec-04 13:36 288 5 gusting 8 4.3
2019-Dec-04 13:30 289 5 gusting 8 4.2
2019-Dec-04 13:24 286 6 gusting 8 4.2
2019-Dec-04 13:18 287 5 gusting 7 4.3
2019-Dec-04 13:12 289 6 gusting 9 4.2
2019-Dec-04 13:06 274 5 gusting 7 4.2
2019-Dec-04 13:00 267 5 gusting 8 4.2
2019-Dec-04 12:54 271 4 gusting 6 4.1
2019-Dec-04 12:48 284 4 gusting 6 4.1
2019-Dec-04 12:42 291 4 gusting 6 4.0
2019-Dec-04 12:36 294 4 gusting 5 4.0
2019-Dec-04 12:30 302 3 gusting 5 3.9
2019-Dec-04 12:24 305 3 gusting 6 3.9
2019-Dec-04 12:18 306 4 gusting 7 3.9
2019-Dec-04 12:12 310 4 gusting 6 3.8
2019-Dec-04 12:06 306 4 gusting 8 3.7
2019-Dec-04 12:00 305 2 gusting 5 3.6
2019-Dec-04 11:54 305 3 gusting 4 3.6
2019-Dec-04 11:48 311 3 gusting 5 3.5
2019-Dec-04 11:42 310 2 gusting 4 3.5
2019-Dec-04 11:36 299 2 gusting 4 3.6
2019-Dec-04 11:30 289 3 gusting 6 3.6
2019-Dec-04 11:24 278 3 gusting 6 3.5
2019-Dec-04 11:18 262 6 gusting 7 3.6
2019-Dec-04 11:12 253 6 gusting 7 3.6
2019-Dec-04 11:06 248 5 gusting 7 3.6
2019-Dec-04 11:00 251 5 gusting 6 3.6
2019-Dec-04 10:54 253 6 gusting 7 3.7
2019-Dec-04 10:48 246 6 gusting 7 3.7
2019-Dec-04 10:42 249 5 gusting 6 3.7
2019-Dec-04 10:36 251 4 gusting 5 3.8
2019-Dec-04 10:30 250 5 gusting 6 3.9
2019-Dec-04 10:24 246 5 gusting 6 3.9
2019-Dec-04 10:18 252 5 gusting 6 4.0
2019-Dec-04 10:12 245 5 gusting 6 3.9
2019-Dec-04 10:06 241 5 gusting 6 3.9
2019-Dec-04 10:00 250 5 gusting 6 3.9
2019-Dec-04 09:54 247 3 gusting 5 3.8
2019-Dec-04 09:48 215 3 gusting 4 3.6
2019-Dec-04 09:42 172 1 gusting 2 3.5
2019-Dec-04 09:36 183 1 gusting 3 3.6
2019-Dec-04 09:30 238 3 gusting 4 3.6
2019-Dec-04 09:24 223 3 gusting 4 3.6
2019-Dec-04 09:18 243 3 gusting 4 3.5
2019-Dec-04 09:12 263 2 gusting 3 3.4
2019-Dec-04 09:06 272 1 gusting 2 3.4
2019-Dec-04 09:00 288 1 gusting 2 3.3
2019-Dec-04 08:54 278 1 gusting 2 3.3
2019-Dec-04 08:48 267 0 gusting 1 3.2
2019-Dec-04 08:42 299 1 gusting 2 3.3
2019-Dec-04 08:36 288 1 gusting 2 3.3
2019-Dec-04 08:30 280 1 gusting 2 3.2
2019-Dec-04 08:24 267 1 gusting 2 3.2
2019-Dec-04 08:18 265 1 gusting 2 3.2
2019-Dec-04 08:12 297 1 gusting 1 3.1
2019-Dec-04 08:06 284 0 gusting 1 3.0
2019-Dec-04 08:00 314 0 gusting 1 3.1
2019-Dec-04 07:54 287 0 gusting 1 3.1
2019-Dec-04 07:48 300 1 gusting 1 3.1
2019-Dec-04 07:42 272 1 gusting 3 3.1
2019-Dec-04 07:36 267 2 gusting 3 3.0
2019-Dec-04 07:30 273 2 gusting 3 2.9
2019-Dec-04 07:24 279 1 gusting 2 2.8
2019-Dec-04 07:18 314 1 gusting 2 2.8
2019-Dec-04 07:12 318 1 gusting 2 2.8
2019-Dec-04 07:06 318 1 gusting 2 2.8
2019-Dec-04 07:00 354 1 gusting 2 2.9
2019-Dec-04 06:54 320 1 gusting 2 2.9
2019-Dec-04 06:48 351 0 gusting 1 2.8
2019-Dec-04 06:42 337 1 gusting 2 2.8
2019-Dec-04 06:36 346 2 gusting 3 2.8
2019-Dec-04 06:30 340 2 gusting 3 2.8
2019-Dec-04 06:24 331 3 gusting 5 2.9
2019-Dec-04 06:18 332 3 gusting 4 2.9
2019-Dec-04 06:12 329 5 gusting 7 2.9
2019-Dec-04 06:06 332 4 gusting 9 3.0
2019-Dec-04 06:00 334 5 gusting 9 3.0
2019-Dec-04 05:54 331 6 gusting 9 3.0
2019-Dec-04 05:48 334 6 gusting 10 3.1
2019-Dec-04 05:42 336 6 gusting 10 3.0
2019-Dec-04 05:36 332 7 gusting 10 3.0
2019-Dec-04 05:30 332 6 gusting 9 3.0
2019-Dec-04 05:24 326 5 gusting 9 3.0
2019-Dec-04 05:18 325 5 gusting 9 3.0
2019-Dec-04 05:12 329 5 gusting 9 3.0
2019-Dec-04 05:06 336 5 gusting 8 3.0
2019-Dec-04 05:00 338 6 gusting 8 3.1
2019-Dec-04 04:54 339 5 gusting 8 3.0
2019-Dec-04 04:48 337 5 gusting 9 3.0
2019-Dec-04 04:42 327 4 gusting 9 2.9
2019-Dec-04 04:36 321 3 gusting 6 2.8
2019-Dec-04 04:30 308 4 gusting 6 2.7
2019-Dec-04 04:24 308 3 gusting 6 2.8
2019-Dec-04 04:18 311 3 gusting 5 2.8
2019-Dec-04 04:12 313 3 gusting 5 2.8
2019-Dec-04 04:06 312 4 gusting 5 2.8
2019-Dec-04 04:00 323 3 gusting 6 2.8
2019-Dec-04 03:54 328 3 gusting 5 2.8
2019-Dec-04 03:48 329 4 gusting 6 2.8
2019-Dec-04 03:42 320 3 gusting 8 2.9
2019-Dec-04 03:36 321 4 gusting 6 2.9
2019-Dec-04 03:30 326 5 gusting 8 3.0
2019-Dec-04 03:24 326 4 gusting 9 3.0
2019-Dec-04 03:18 324 4 gusting 9 3.1
2019-Dec-04 03:12 324 5 gusting 11 3.1
2019-Dec-04 03:06 328 6 gusting 11 3.2
2019-Dec-04 03:00 333 6 gusting 8 3.2
2019-Dec-04 02:54 333 5 gusting 8 3.3
2019-Dec-04 02:48 330 5 gusting 10 3.4
2019-Dec-04 02:42 329 5 gusting 10 3.4
2019-Dec-04 02:36 318 4 gusting 9 3.4
2019-Dec-04 02:30 314 5 gusting 8 3.3
2019-Dec-04 02:24 312 5 gusting 9 3.3
2019-Dec-04 02:18 307 6 gusting 9 3.2
2019-Dec-04 02:12 308 4 gusting 7 3.2
2019-Dec-04 02:06 315 4 gusting 7 3.2
2019-Dec-04 02:00 317 4 gusting 7 3.2
2019-Dec-04 01:54 314 4 gusting 7 3.3
2019-Dec-04 01:48 311 5 gusting 7 3.4
2019-Dec-04 01:42 324 4 gusting 8 3.5
2019-Dec-04 01:36 318 5 gusting 7 3.5
2019-Dec-04 01:30 323 5 gusting 9 3.5
2019-Dec-04 01:24 329 6 gusting 10 3.6
2019-Dec-04 01:18 330 6 gusting 12 3.7
2019-Dec-04 01:12 328 5 gusting 9 3.8
2019-Dec-04 01:06 327 4 gusting 8 3.8
2019-Dec-04 01:00 321 4 gusting 8 3.8
2019-Dec-04 00:54 311 4 gusting 7 3.7
2019-Dec-04 00:48 316 4 gusting 7 3.7
2019-Dec-04 00:42 309 3 gusting 5 3.6
2019-Dec-04 00:36 314 3 gusting 7 3.7
2019-Dec-04 00:30 310 3 gusting 5 3.6
2019-Dec-04 00:24 307 3 gusting 5 3.7
2019-Dec-04 00:18 318 3 gusting 5 3.8
2019-Dec-04 00:12 313 2 gusting 4 3.8
2019-Dec-04 00:06 319 3 gusting 6 3.9
2019-Dec-04 00:00 347 3 gusting 6 3.9
2019-Dec-03 23:54 352 2 gusting 6 3.8
2019-Dec-03 23:42 352 3 gusting 5 4.1
2019-Dec-03 23:36 325 3 gusting 6 4.1
2019-Dec-03 23:30 333 4 gusting 9 4.2
2019-Dec-03 23:24 331 5 gusting 11 4.3
2019-Dec-03 23:18 327 6 gusting 11 4.4
2019-Dec-03 23:12 327 7 gusting 12 4.5
2019-Dec-03 23:06 325 7 gusting 11 4.7
2019-Dec-03 23:00 322 5 gusting 11 4.7
2019-Dec-03 22:54 323 6 gusting 12 4.8
2019-Dec-03 22:48 325 8 gusting 15 4.9
2019-Dec-03 22:42 325 8 gusting 15 4.9
2019-Dec-03 22:36 323 7 gusting 13 4.9
2019-Dec-03 22:30 323 6 gusting 13 4.8
2019-Dec-03 22:24 323 7 gusting 13 4.9
2019-Dec-03 22:18 327 8 gusting 13 4.9
2019-Dec-03 22:12 326 7 gusting 12 4.9
2019-Dec-03 22:06 326 7 gusting 11 4.9
2019-Dec-03 22:00 328 8 gusting 12 5.0
2019-Dec-03 21:54 327 7 gusting 12 5.1
2019-Dec-03 21:48 324 6 gusting 11 5.2
2019-Dec-03 21:42 317 7 gusting 12 5.3
2019-Dec-03 21:36 323 7 gusting 13 5.4
2019-Dec-03 21:30 323 9 gusting 15 5.5
2019-Dec-03 21:24 323 9 gusting 16 5.6
2019-Dec-03 21:18 318 10 gusting 20 5.8
2019-Dec-03 21:12 321 12 gusting 24 5.9
2019-Dec-03 21:06 321 12 gusting 24 6.0
2019-Dec-03 21:00 315 12 gusting 19 6.0